This demonstration page uses our WeatherBlox Daily Observations layout. Learn more.

Left ArrowRight Arrow

39.12711, -84.51439

Hourly Observations for October 10, 2021

Temp ( °F °C ) Dew Point ( °F °C ) Humidity (%) Winds ( mph kmh ) Pressure ( in mb ) Visibility ( mi km ) Precip ( " mm )
12:53 am 00:53 Clear with Mist and Fog 64 17.8 64 17.8 100 100 Calm 29.96 1015 5 8 0.00 0.00
1:21 am 01:21 Clear with Mist and Fog 64 17.8 64 17.8 100 100 Calm 29.96 1015 2 3 0.00 0.00
1:35 am 01:35 Clear with Mist and Fog 63 17.2 63 17.2 100 100 Calm 29.96 1015 3 5 0.00 0.00
1:53 am 01:53 Clear with Mist and Fog 64 17.8 64 17.8 100 100 Calm 29.96 1015 5 8 0.00 0.00
2:17 am 02:17 Clear with Mist and Fog 63 17.2 63 17.2 100 100 Calm 29.97 1015 3 4 0.00 0.00
2:24 am 02:24 Clear with Mist and Fog 63 17.2 63 17.2 100 100 Calm 29.97 1015 4 6 0.00 0.00
2:47 am 02:47 Clear with Mist and Fog 63 17 63 17 100 100 Calm 29.97 1015 2 2 0.00 0.00
2:53 am 02:53 Clear with Mist and Fog 62 16.7 62 16.7 100 100 Calm 29.97 1015 1 2 0.00 0.00
3:00 am 03:00 Clear with Mist and Fog 63 17.2 63 17.2 100 100 Calm 29.97 1015 3 5 0.00 0.00
3:05 am 03:05 Clear with Mist and Fog 63 17.2 63 17.2 100 100 Calm 29.97 1015 2 3 0.00 0.00
3:23 am 03:23 Partly Cloudy with Mist and Fog 62 16.7 62 16.7 100 100 Calm 29.97 1015 3 5 0.00 0.00
3:37 am 03:37 Mostly Clear with Mist and Fog 62 16.7 62 16.7 100 100 Calm 29.97 1015 2 3 0.00 0.00
3:49 am 03:49 Mostly Clear with Mist and Fog 63 17 63 17 100 100 Calm 29.97 1015 3 5 0.00 0.00
3:53 am 03:53 Clear with Mist and Fog 63 17.2 63 17.2 100 100 Calm 29.97 1015 3 5 0.00 0.00
3:58 am 03:58 Clear with Mist and Fog 63 17.2 63 17.2 100 100 Calm 29.97 1015 2 2 0.00 0.00
4:04 am 04:04 Mostly Cloudy with Fog 62 16.7 62 16.7 100 100 Calm 29.97 1015 0 0 0.00 0.00
4:10 am 04:10 Clear with Fog 63 17.2 63 17.2 100 100 Calm 29.97 1015 1 1 0.00 0.00
4:16 am 04:16 Mostly Cloudy with Mist and Fog 63 17.2 63 17.2 100 100 Calm 29.97 1015 1 2 0.00 0.00
4:23 am 04:23 Mostly Cloudy with Fog 62 16.7 62 16.7 100 100 Calm 29.97 1015 0 0 0.00 0.00
4:26 am 04:26 Clear with Fog 62 16.7 62 16.7 100 100 Calm 29.97 1015 1 1 0.00 0.00
4:44 am 04:44 Mostly Cloudy with Fog 61 16.1 61 16.1 100 100 Calm 29.97 1015 1 1 0.00 0.00
4:48 am 04:48 Clear with Fog 63 17 63 17 100 100 Calm 29.96 1015 0 0 0.00 0.00
4:53 am 04:53 Clear with Fog 62 16.7 62 16.7 100 100 Calm 29.96 1015 1 1 0.00 0.00
4:59 am 04:59 Clear with Mist and Fog 62 16.7 62 16.7 100 100 Calm 29.97 1015 2 3 0.00 0.00
5:06 am 05:06 Clear 62 16.7 62 16.7 100 100 Calm 29.97 1015 7 11 0.00 0.00
5:53 am 05:53 Clear with Mist and Fog 62 16.7 62 16.7 100 100 Calm 29.96 1015 5 8 0.00 0.00
6:53 am 06:53 Clear 64 17.8 63 17.2 96 96 Calm 29.98 1015 7 11 0.00 0.00
7:53 am 07:53 Sunny with Mist and Fog 62 16.7 62 16.7 100 100 Calm 29.99 1016 4 6 0.00 0.00
7:57 am 07:57 Sunny with Mist and Fog 62 16.7 62 16.7 100 100 Calm 29.99 1016 2 3 0.00 0.00
8:09 am 08:09 Partly Cloudy with Mist and Fog 63 17.2 63 17.2 100 100 Calm 29.99 1016 5 8 0.00 0.00
8:53 am 08:53 Sunny 67 19.4 65 18.3 93 93 SSW 5 7 30.00 1016 10 16 0.00 0.00
9:53 am 09:53 Sunny 69 20.6 66 18.9 90 90 S 7 11 30.00 1016 10 16 0.00 0.00
10:53 am 10:53 Sunny 74 23.3 67 19.4 79 79 S 9 15 29.99 1016 10 16 0.00 0.00
11:53 am 11:53 Sunny 76 24.4 67 19.4 74 74 S 10 17 29.98 1015 10 16 0.00 0.00
12:53 pm 12:53 Sunny 79 26.1 68 20 69 69 S 9 15 29.96 1015 10 16 0.00 0.00
1:53 pm 13:53 Sunny 81 27.2 68 20 65 65 SSW 9 15 29.94 1014 10 16 0.00 0.00
2:53 pm 14:53 Mostly Sunny 82 27.8 67 19.4 60 60 SSW 14 22 29.92 1013 10 16 0.00 0.00
3:53 pm 15:53 Sunny 82 27.8 67 19.4 60 60 SSW 13 20 29.90 1013 10 16 0.00 0.00
4:53 pm 16:53 Sunny 82 27.8 67 19.4 60 60 S 12 19 29.90 1012 10 16 0.00 0.00
5:53 pm 17:53 Sunny 80 26.7 66 18.9 62 62 S 13 20 29.90 1012 10 16 0.00 0.00
6:53 pm 18:53 Sunny 76 24.4 65 18.3 69 69 S 3 6 29.91 1013 10 16 0.00 0.00
7:53 pm 19:53 Clear 72 22.2 67 19.4 84 84 Calm 29.92 1013 10 16 0.00 0.00
8:53 pm 20:53 Clear 67 19.4 65 18.3 93 93 Calm 29.93 1013 10 16 0.00 0.00
9:53 pm 21:53 Clear 69 20.6 65 18.3 87 87 Calm 29.93 1013 10 16 0.00 0.00
10:53 pm 22:53 Clear 66 18.9 65 18.3 96 96 SW 5 7 29.93 1013 10 16 0.00 0.00
11:53 pm 23:53 Clear 66 18.9 65 18.3 96 96 SW 5 7 29.92 1013 10 16 0.00 0.00

Powered by AerisWeather